Худат

Азербайджан     41°37′47″N   48°40′48″E
темп.,
°C
ветер,
м/с
пор.,
м/с
влажн.,
%
обл.,
%
осадки,
мм/ч
давл.,
гПа
погр.,
м
21 октября, чт
чт2101:00+13ссз8854100 0.1 10311585
04:00+12сз555684 0.1 10311334
07:00+11ссз335573 0.0 10321067
10:00+11всв01525 0.0 10321032
13:00+12вюв455813 0.0 10311120
16:00+13юв676336 0.0 10291108
19:00+13юв566914 0.0 1028845
22:00+13зсз22705 0.0 1027265
22 октября, пт
пт2201:00+12зюз33730 0.0 1025150
04:00+13ююв33680 0.0 1023181
07:00+13ю22640 0.0 1022156
10:00+14юв22610 0.0 1022158
13:00+15в22630 0.0 1020202
16:00+15св11610 0.0 1019140
19:00+15ссз22610 0.0 1020158
22:00+15зюз11600 0.0 102083
23 октября, сб
сб2301:00+15ююз11610 0.0 102083
04:00+15з11630 0.0 102088
07:00+15з21610 0.0 1020100
10:00+15ю11580 0.0 1021113
13:00+16в33650 0.0 1020207
16:00+16всв22680 0.0 1019213
19:00+16з00740 0.0 102015
22:00+15ююз11670 0.0 101952
24 октября, вс
вс2401:00+15юз11646 0.0 101865
04:00+15зсз22650 0.0 1018103
07:00+15зсз44690 0.0 1018148
10:00+16сз567118 0.0 1019343
13:00+16ссз56754 0.0 1018300
16:00+16ссз34710 0.0 1017242
19:00+16сз22715 0.0 1018133
22:00+15з22645 0.0 101797
25 октября, пн
пн2501:00+15з22625 0.0 101588
04:00+15зсз236445 0.0 1015154
07:00+15зсз3367100 0.0 1015217
10:00+16сз5672100 0.0 1015642
13:00+14ссз141584100 0.3 1016818
16:00+12ссз171782100 0.4 10181142
19:00+11ссз151781100 1.3 10231442
22:00+12ссз151669100 3.1 10251763